project_name,platform_name,Date_(yyyymmdd),Time_(hh24miss),beacon_ID,latitude_DD,longitude_DD,altitude_m,altitude_result_value_type,speed_m_s,speed_result_value_type,direction_degrees,direction_result_value_type,fix,sat
BaySys,Amundsen,2007-11-24,22:25:01,300034012023330,73.9197,-127.3983,4.1862,Actual,,Calculated,203.8300,Calculated,1,5
BaySys,Amundsen,2007-11-26,00:34:00,300034012023330,73.8099,-127.4312,-1.7359,Actual,,Calculated,183.2200,Calculated,1,8
BaySys,Amundsen,2007-11-26,02:34:35,300034012023330,73.8009,-127.4262,0.6022,Actual,,Calculated,158.8300,Calculated,1,14
BaySys,Amundsen,2007-11-26,04:34:18,300034012023330,73.7914,-127.4244,1.3925,Actual,,Calculated,183.3300,Calculated,1,10
BaySys,Amundsen,2007-11-26,06:34:37,300034012023330,73.7825,-127.4267,9.3421,Actual,,Calculated,284.6900,Calculated,1,9
BaySys,Amundsen,2007-11-28,08:34:43,300034012023330,73.5584,-127.4353,-3.6452,Actual,,Calculated,57.1600,Calculated,1,11
BaySys,Amundsen,2007-11-28,10:34:25,300034012023330,73.5561,-127.4030,7.8308,Actual,,Calculated,108.3200,Calculated,1,9
BaySys,Amundsen,2007-11-28,12:35:05,300034012023330,73.5518,-127.3617,-4.6497,Actual,,Calculated,156.1100,Calculated,1,12
BaySys,Amundsen,2007-11-28,14:34:48,300034012023330,73.5454,-127.3256,-3.1588,Actual,,Calculated,130.8300,Calculated,1,8
BaySys,Amundsen,2007-11-28,22:34:42,300034012023330,73.5150,-127.2720,-3.2344,Actual,,Calculated,205.7100,Calculated,1,12
BaySys,Amundsen,2007-11-29,00:34:40,300034012023330,73.5019,-127.2755,-12.4859,Actual,,Calculated,217.5900,Calculated,1,9
BaySys,Amundsen,2007-11-29,02:35:05,300034012023330,73.4866,-127.2870,-3.8950,Actual,,Calculated,214.8100,Calculated,1,11
BaySys,Amundsen,2007-11-29,04:34:41,300034012023330,73.4715,-127.2999,39.5447,Actual,,Calculated,202.4600,Calculated,1,9
BaySys,Amundsen,2007-11-29,06:35:05,300034012023330,73.4557,-127.3048,4.9738,Actual,,Calculated,175.6500,Calculated,1,10
BaySys,Amundsen,2007-11-29,08:35:06,300034012023330,73.4360,-127.2975,-1.3948,Actual,,Calculated,162.6500,Calculated,1,8
BaySys,Amundsen,2007-11-29,10:34:50,300034012023330,73.4112,-127.3018,15.3005,Actual,,Calculated,206.6100,Calculated,1,11
BaySys,Amundsen,2007-11-29,12:35:29,300034012023330,73.3869,-127.3379,-7.7743,Actual,,Calculated,208.2900,Calculated,1,13
BaySys,Amundsen,2007-11-29,14:35:12,300034012023330,73.3685,-127.3857,9.4375,Actual,,Calculated,221.1800,Calculated,1,9
BaySys,Amundsen,2007-11-29,16:35:00,300034012023330,73.3525,-127.4237,3.3768,Actual,,Calculated,225.9900,Calculated,1,10
BaySys,Amundsen,2007-11-29,18:35:35,300034012023330,73.3364,-127.4458,-4.3565,Actual,,Calculated,206.8100,Calculated,1,11
BaySys,Amundsen,2007-11-29,20:35:26,300034012023330,73.3166,-127.4600,2.1012,Actual,,Calculated,194.3500,Calculated,1,10
BaySys,Amundsen,2007-11-29,22:44:54,300034012023330,73.2947,-127.4878,-5.8650,Actual,,Calculated,194.4300,Calculated,1,13
BaySys,Amundsen,2007-11-30,06:54:44,300034012023330,73.2211,-127.5828,55.6845,Actual,,Calculated,212.6400,Calculated,1,9
BaySys,Amundsen,2007-11-30,08:54:42,300034012023330,73.1978,-127.6041,5.7444,Actual,,Calculated,151.4000,Calculated,1,10
BaySys,Amundsen,2007-11-30,10:55:23,300034012023330,73.1747,-127.6310,4.8035,Actual,,Calculated,325.6100,Calculated,1,11
BaySys,Amundsen,2007-11-30,12:55:08,300034012023330,73.1540,-127.6594,-11.2202,Actual,,Calculated,204.7900,Calculated,1,10
BaySys,Amundsen,2007-11-30,14:55:23,300034012023330,73.1363,-127.6864,-2.3233,Actual,,Calculated,296.2500,Calculated,1,11
BaySys,Amundsen,2007-12-01,05:05:20,300034012023330,73.0053,-127.8182,3.6181,Actual,,Calculated,206.7000,Calculated,1,8
BaySys,Amundsen,2007-12-01,11:05:35,300034012023330,72.9599,-127.8904,3.7857,Actual,,Calculated,230.7000,Calculated,1,12
BaySys,Amundsen,2007-12-01,13:05:07,300034012023330,72.9454,-127.9206,8.3691,Actual,,Calculated,213.2100,Calculated,1,9
BaySys,Amundsen,2007-12-01,15:05:00,300034012023330,72.9319,-127.9542,-1.3680,Actual,,Calculated,224.2400,Calculated,1,11
BaySys,Amundsen,2007-12-01,17:05:28,300034012023330,72.9191,-127.9832,-0.8790,Actual,,Calculated,207.6400,Calculated,1,8
BaySys,Amundsen,2007-12-01,19:05:15,300034012023330,72.9068,-128.0116,-5.0612,Actual,,Calculated,208.7900,Calculated,1,8
BaySys,Amundsen,2007-12-01,21:05:06,300034012023330,72.8964,-128.0431,4.9197,Actual,,Calculated,146.9600,Calculated,1,10
BaySys,Amundsen,2007-12-01,23:05:35,300034012023330,72.8874,-128.0812,5.4927,Actual,,Calculated,53.4100,Calculated,1,9
BaySys,Amundsen,2007-12-02,01:05:16,300034012023330,72.8785,-128.1164,-6.1733,Actual,,Calculated,229.0200,Calculated,1,12
BaySys,Amundsen,2007-12-02,03:05:35,300034012023330,72.8690,-128.1494,-0.4214,Actual,,Calculated,8.3700,Calculated,1,11
BaySys,Amundsen,2007-12-02,05:05:48,300034012023330,72.8604,-128.1731,8.3678,Actual,,Calculated,216.3500,Calculated,1,10
BaySys,Amundsen,2007-12-02,07:13:57,300034012023330,72.8518,-128.1907,7.3257,Actual,,Calculated,204.9700,Calculated,1,9
BaySys,Amundsen,2007-12-02,17:23:45,300034012023330,72.8063,-128.2523,-0.8550,Actual,,Calculated,207.5700,Calculated,1,7
BaySys,Amundsen,2007-12-02,19:24:00,300034012023330,72.7972,-128.2601,-0.4315,Actual,,Calculated,154.4500,Calculated,1,10
BaySys,Amundsen,2007-12-02,21:23:53,300034012023330,72.7885,-128.2677,-0.4697,Actual,,Calculated,169.4100,Calculated,1,11
BaySys,Amundsen,2007-12-02,23:23:58,300034012023330,72.7797,-128.2770,-7.3568,Actual,,Calculated,218.0300,Calculated,1,12
BaySys,Amundsen,2007-12-03,01:23:56,300034012023330,72.7708,-128.2868,15.8294,Actual,,Calculated,199.0900,Calculated,1,13
BaySys,Amundsen,2007-12-03,03:24:00,300034012023330,72.7620,-128.2956,0.9932,Actual,,Calculated,98.8500,Calculated,1,7
BaySys,Amundsen,2007-12-03,05:24:35,300034012023330,72.7535,-128.3033,2.0196,Actual,,Calculated,198.6700,Calculated,1,8
BaySys,Amundsen,2007-12-03,07:24:20,300034012023330,72.7457,-128.3101,0.6934,Actual,,Calculated,148.9700,Calculated,1,10
BaySys,Amundsen,2007-12-03,09:24:06,300034012023330,72.7386,-128.3156,13.1953,Actual,,Calculated,177.4300,Calculated,1,9
BaySys,Amundsen,2007-12-03,11:24:09,300034012023330,72.7325,-128.3214,4.4926,Actual,,Calculated,230.9800,Calculated,1,9
BaySys,Amundsen,2007-12-03,13:24:04,300034012023330,72.7261,-128.3269,5.7073,Actual,,Calculated,213.3300,Calculated,1,9
BaySys,Amundsen,2007-12-03,15:24:35,300034012023330,72.7189,-128.3286,-1.4959,Actual,,Calculated,242.4900,Calculated,1,8
BaySys,Amundsen,2007-12-03,17:24:24,300034012023330,72.7109,-128.3265,2.9662,Actual,,Calculated,177.9400,Calculated,1,5
BaySys,Amundsen,2007-12-03,19:24:35,300034012023330,72.7029,-128.3220,-0.8498,Actual,,Calculated,183.9600,Calculated,1,10
BaySys,Amundsen,2007-12-03,21:24:38,300034012023330,72.6957,-128.3166,1.2445,Actual,,Calculated,204.9800,Calculated,1,10
BaySys,Amundsen,2007-12-03,23:24:26,300034012023330,72.6885,-128.3121,-3.3867,Actual,,Calculated,153.7900,Calculated,1,12
BaySys,Amundsen,2007-12-04,01:24:59,300034012023330,72.6799,-128.3078,-4.2545,Actual,,Calculated,231.6200,Calculated,1,13
BaySys,Amundsen,2007-12-04,03:24:42,300034012023330,72.6704,-128.3032,-3.5170,Actual,,Calculated,201.8000,Calculated,1,7
BaySys,Amundsen,2007-12-04,05:24:29,300034012023330,72.6601,-128.2971,-6.8670,Actual,,Calculated,164.0000,Calculated,1,7
BaySys,Amundsen,2007-12-04,07:25:05,300034012023330,72.6495,-128.2905,-11.1497,Actual,,Calculated,194.8000,Calculated,1,9
BaySys,Amundsen,2007-12-04,09:24:56,300034012023330,72.6386,-128.2889,6.1907,Actual,,Calculated,153.2400,Calculated,1,8
BaySys,Amundsen,2007-12-04,11:24:33,300034012023330,72.6280,-128.2919,3.9666,Actual,,Calculated,189.9900,Calculated,1,8
BaySys,Amundsen,2007-12-04,13:24:37,300034012023330,72.6178,-128.3000,20.5190,Actual,,Calculated,193.0600,Calculated,1,9
BaySys,Amundsen,2007-12-04,15:25:05,300034012023330,72.6080,-128.3084,-2.2489,Actual,,Calculated,311.5000,Calculated,1,10
BaySys,Amundsen,2007-12-04,17:25:05,300034012023330,72.5982,-128.3132,8.9326,Actual,,Calculated,186.8400,Calculated,1,7
BaySys,Amundsen,2007-12-04,19:24:40,300034012023330,72.5881,-128.3148,10.1716,Actual,,Calculated,211.8100,Calculated,1,8
BaySys,Amundsen,2007-12-04,21:25:05,300034012023330,72.5777,-128.3139,5.1760,Actual,,Calculated,179.3200,Calculated,1,8
BaySys,Amundsen,2007-12-04,23:24:51,300034012023330,72.5673,-128.3163,-5.2519,Actual,,Calculated,230.4300,Calculated,1,11
BaySys,Amundsen,2007-12-05,01:25:00,300034012023330,72.5576,-128.3228,-0.6499,Actual,,Calculated,226.1300,Calculated,1,9
BaySys,Amundsen,2007-12-05,03:24:50,300034012023330,72.5495,-128.3267,-3.9414,Actual,,Calculated,199.1700,Calculated,1,7
BaySys,Amundsen,2007-12-05,05:24:57,300034012023330,72.5399,-128.3248,5.5983,Actual,,Calculated,167.5800,Calculated,1,8
BaySys,Amundsen,2007-12-05,07:24:59,300034012023330,72.5278,-128.3212,-24.1040,Actual,,Calculated,157.7900,Calculated,1,10
BaySys,Amundsen,2007-12-05,09:25:29,300034012023330,72.5153,-128.3184,-5.8215,Actual,,Calculated,217.3800,Calculated,1,12
BaySys,Amundsen,2007-12-05,11:24:59,300034012023330,72.5036,-128.3159,10.0576,Actual,,Calculated,219.9800,Calculated,1,12
BaySys,Amundsen,2007-12-05,13:25:29,300034012023330,72.4929,-128.3131,0.4972,Actual,,Calculated,216.2600,Calculated,1,13
BaySys,Amundsen,2007-12-05,15:25:19,300034012023330,72.4837,-128.3109,-1.6724,Actual,,Calculated,163.7400,Calculated,1,7
BaySys,Amundsen,2007-12-05,17:25:08,300034012023330,72.4748,-128.3057,-9.5560,Actual,,Calculated,233.5000,Calculated,1,7
BaySys,Amundsen,2007-12-05,19:25:35,300034012023330,72.4651,-128.3001,-10.6058,Actual,,Calculated,303.8300,Calculated,1,9
BaySys,Amundsen,2007-12-05,21:25:30,300034012023330,72.4550,-128.2955,1.5355,Actual,,Calculated,195.6100,Calculated,1,10
BaySys,Amundsen,2007-12-05,23:25:35,300034012023330,72.4442,-128.2927,0.6890,Actual,,Calculated,176.0400,Calculated,1,8
BaySys,Amundsen,2007-12-06,01:25:15,300034012023330,72.4330,-128.2976,11.7421,Actual,,Calculated,183.3900,Calculated,1,12
BaySys,Amundsen,2007-12-06,03:25:25,300034012023330,72.4225,-128.3084,-0.5415,Actual,,Calculated,229.4300,Calculated,1,6
BaySys,Amundsen,2007-12-06,05:25:53,300034012023330,72.4126,-128.3177,7.7934,Actual,,Calculated,331.4100,Calculated,1,9
BaySys,Amundsen,2007-12-06,07:25:53,300034012023330,72.4019,-128.3215,-12.3993,Actual,,Calculated,181.8200,Calculated,1,10
BaySys,Amundsen,2007-12-06,09:25:31,300034012023330,72.3888,-128.3214,27.6122,Actual,,Calculated,192.3800,Calculated,1,11
BaySys,Amundsen,2007-12-06,11:26:05,300034012023330,72.3741,-128.3255,4.2487,Actual,,Calculated,214.0000,Calculated,1,10
BaySys,Amundsen,2007-12-06,13:25:48,300034012023330,72.3612,-128.3396,15.4248,Actual,,Calculated,330.1800,Calculated,1,8
BaySys,Amundsen,2007-12-06,15:25:34,300034012023330,72.3527,-128.3606,9.9945,Actual,,Calculated,248.0600,Calculated,1,12
BaySys,Amundsen,2007-12-06,17:26:06,300034012023330,72.3484,-128.3760,-0.5884,Actual,,Calculated,228.0000,Calculated,1,8
BaySys,Amundsen,2007-12-08,01:35:28,300034012023330,72.2396,-128.4879,5.9333,Actual,,Calculated,185.4500,Calculated,1,12
BaySys,Amundsen,2007-12-08,03:39:03,300034012023330,72.2321,-128.5082,1.5969,Actual,,Calculated,165.5700,Calculated,1,12
BaySys,Amundsen,2007-12-08,05:40:08,300034012023330,72.2262,-128.5315,-10.9595,Actual,,Calculated,248.9600,Calculated,1,10
BaySys,Amundsen,2007-12-12,01:50:05,300034012023330,71.9494,-129.5049,9.1823,Actual,,Calculated,204.6500,Calculated,1,12
BaySys,Amundsen,2007-12-12,07:50:39,300034012023330,71.9379,-129.6048,31.0329,Actual,,Calculated,243.8400,Calculated,1,9
BaySys,Amundsen,2007-12-12,09:51:05,300034012023330,71.9368,-129.6438,12.6199,Actual,,Calculated,241.6200,Calculated,1,9
BaySys,Amundsen,2007-12-12,11:52:47,300034012023330,71.9352,-129.6763,28.4178,Actual,,Calculated,258.2600,Calculated,1,11
BaySys,Amundsen,2007-12-12,13:52:48,300034012023330,71.9329,-129.7037,37.1232,Actual,,Calculated,277.6900,Calculated,1,9
BaySys,Amundsen,2007-12-12,15:52:53,300034012023330,71.9306,-129.7350,6.0678,Actual,,Calculated,273.2700,Calculated,1,10
BaySys,Amundsen,2007-12-12,17:52:55,300034012023330,71.9296,-129.7727,-4.8520,Actual,,Calculated,288.0000,Calculated,1,8
BaySys,Amundsen,2007-12-12,19:52:56,300034012023330,71.9308,-129.8106,5.1442,Actual,,Calculated,275.1700,Calculated,1,11
BaySys,Amundsen,2007-12-12,21:53:15,300034012023330,71.9325,-129.8425,-5.7130,Actual,,Calculated,289.3600,Calculated,1,12
BaySys,Amundsen,2007-12-12,23:52:59,300034012023330,71.9320,-129.8651,82.9358,Actual,,Calculated,241.5800,Calculated,1,11
BaySys,Amundsen,2007-12-13,01:53:29,300034012023330,71.9289,-129.8821,-0.8370,Actual,,Calculated,240.6500,Calculated,1,12
BaySys,Amundsen,2007-12-13,03:53:03,300034012023330,71.9262,-129.9083,0.4320,Actual,,Calculated,278.2500,Calculated,1,8
BaySys,Amundsen,2007-12-13,05:53:07,300034012023330,71.9253,-129.9417,-2.7147,Actual,,Calculated,276.1600,Calculated,1,8
BaySys,Amundsen,2007-12-13,07:53:08,300034012023330,71.9254,-129.9775,2.6796,Actual,,Calculated,254.1000,Calculated,1,11
BaySys,Amundsen,2007-12-13,09:53:30,300034012023330,71.9253,-130.0038,9.2385,Actual,,Calculated,294.1800,Calculated,1,10
BaySys,Amundsen,2007-12-13,11:53:13,300034012023330,71.9234,-130.0183,22.2214,Actual,,Calculated,59.7600,Calculated,1,11
BaySys,Amundsen,2007-12-13,13:53:25,300034012023330,71.9190,-130.0259,5.7367,Actual,,Calculated,216.3600,Calculated,1,6
BaySys,Amundsen,2007-12-13,15:53:53,300034012023330,71.9136,-130.0393,-4.3476,Actual,,Calculated,191.4500,Calculated,1,10
BaySys,Amundsen,2007-12-13,17:53:39,300034012023330,71.9096,-130.0614,7.1054,Actual,,Calculated,259.7200,Calculated,1,11
BaySys,Amundsen,2007-12-13,19:53:21,300034012023330,71.9084,-130.0846,0.2967,Actual,,Calculated,242.4500,Calculated,1,13
BaySys,Amundsen,2007-12-13,21:53:29,300034012023330,71.9098,-130.0998,-3.1274,Actual,,Calculated,312.3000,Calculated,1,13
BaySys,Amundsen,2007-12-13,23:53:31,300034012023330,71.9107,-130.1007,2.9362,Actual,,Calculated,163.5300,Calculated,1,11
BaySys,Amundsen,2007-12-14,01:53:59,300034012023330,71.9089,-130.0906,-0.7990,Actual,,Calculated,144.3700,Calculated,1,12
BaySys,Amundsen,2007-12-14,03:53:44,300034012023330,71.9034,-130.0795,15.9947,Actual,,Calculated,198.8600,Calculated,1,11
BaySys,Amundsen,2007-12-14,05:53:30,300034012023330,71.8942,-130.0707,0.0719,Actual,,Calculated,177.2200,Calculated,1,9
BaySys,Amundsen,2007-12-14,07:53:31,300034012023330,71.8840,-130.0766,4.4909,Actual,,Calculated,203.1700,Calculated,1,11
BaySys,Amundsen,2007-12-14,09:54:05,300034012023330,71.8753,-130.0936,4.8544,Actual,,Calculated,216.0500,Calculated,1,9
BaySys,Amundsen,2007-12-14,11:54:05,300034012023330,71.8676,-130.1113,5.0477,Actual,,Calculated,14.5900,Calculated,1,10
BaySys,Amundsen,2007-12-14,13:53:42,300034012023330,71.8596,-130.1266,13.9412,Actual,,Calculated,216.8800,Calculated,1,11
BaySys,Amundsen,2007-12-17,18:03:28,300034012023330,71.6565,-131.1043,-3.3091,Actual,,Calculated,256.0900,Calculated,1,10
BaySys,Amundsen,2007-12-18,14:13:18,300034012023330,71.5962,-131.6150,6.5515,Actual,,Calculated,252.8300,Calculated,1,12
BaySys,Amundsen,2007-12-18,16:14:21,300034012023330,71.5911,-131.6704,-1.7487,Actual,,Calculated,275.8400,Calculated,1,10
BaySys,Amundsen,2007-12-18,18:14:38,300034012023330,71.5858,-131.7222,-9.0465,Actual,,Calculated,253.9500,Calculated,1,10
BaySys,Amundsen,2007-12-20,14:24:24,300034012023330,71.4931,-132.7831,16.0269,Actual,,Calculated,242.2100,Calculated,1,11
BaySys,Amundsen,2007-12-20,22:24:24,300034012023330,71.4802,-132.9349,-12.4560,Actual,,Calculated,264.5000,Calculated,1,10
BaySys,Amundsen,2007-12-21,00:24:26,300034012023330,71.4765,-132.9729,-0.1751,Actual,,Calculated,241.0600,Calculated,1,13
BaySys,Amundsen,2007-12-21,02:25:05,300034012023330,71.4721,-133.0117,5.5159,Actual,,Calculated,243.2800,Calculated,1,10
BaySys,Amundsen,2007-12-21,10:26:34,300034012023330,71.4531,-133.1763,25.6551,Actual,,Calculated,255.1500,Calculated,1,10
BaySys,Amundsen,2007-12-21,12:27:05,300034012023330,71.4515,-133.2255,6.6569,Actual,,Calculated,192.0600,Calculated,1,13
BaySys,Amundsen,2007-12-21,14:26:54,300034012023330,71.4514,-133.2721,-8.2593,Actual,,Calculated,219.5800,Calculated,1,8
BaySys,Amundsen,2007-12-21,16:26:40,300034012023330,71.4509,-133.3134,37.2099,Actual,,Calculated,256.4000,Calculated,1,7
BaySys,Amundsen,2007-12-21,18:26:38,300034012023330,71.4488,-133.3553,8.4004,Actual,,Calculated,262.0200,Calculated,1,10
BaySys,Amundsen,2007-12-22,08:36:50,300034012023330,71.4485,-133.7070,7.7904,Actual,,Calculated,272.9500,Calculated,1,9
BaySys,Amundsen,2007-12-22,10:36:29,300034012023330,71.4481,-133.7534,-2.8469,Actual,,Calculated,289.8000,Calculated,1,10
BaySys,Amundsen,2007-12-22,10:36:29,300034012023330,71.4481,-133.7534,-2.8469,Actual,,Calculated,289.8000,Calculated,1,10
BaySys,Amundsen,2007-12-22,12:36:31,300034012023330,71.4491,-133.8079,3.8842,Actual,,Calculated,290.5600,Calculated,1,10
BaySys,Amundsen,2007-12-22,14:37:05,300034012023330,71.4515,-133.8636,-2.0227,Actual,,Calculated,321.3800,Calculated,1,10
BaySys,Amundsen,2007-12-22,16:36:39,300034012023330,71.4529,-133.9158,-2.1600,Actual,,Calculated,261.7900,Calculated,1,8
BaySys,Amundsen,2007-12-23,04:38:30,300034012023330,71.4413,-134.2820,-3.0263,Actual,,Calculated,268.6100,Calculated,1,11
BaySys,Amundsen,2007-12-23,08:43:33,300034012023330,71.4381,-134.3852,5.9505,Actual,,Calculated,273.8300,Calculated,1,11
BaySys,Amundsen,2007-12-23,10:43:48,300034012023330,71.4310,-134.4360,-2.4526,Actual,,Calculated,219.0000,Calculated,1,10
BaySys,Amundsen,2007-12-23,12:44:01,300034012023330,71.4233,-134.5017,17.7626,Actual,,Calculated,52.9800,Calculated,1,10
BaySys,Amundsen,2007-12-23,14:44:29,300034012023330,71.4184,-134.5765,-7.0582,Actual,,Calculated,222.9100,Calculated,1,11
BaySys,Amundsen,2007-12-23,16:44:03,300034012023330,71.4167,-134.6522,-1.8937,Actual,,Calculated,284.0600,Calculated,1,11
BaySys,Amundsen,2007-12-23,18:44:00,300034012023330,71.4171,-134.7237,8.2138,Actual,,Calculated,258.9000,Calculated,1,9
BaySys,Amundsen,2007-12-23,20:44:35,300034012023330,71.4183,-134.7921,1.9260,Actual,,Calculated,270.8500,Calculated,1,11
BaySys,Amundsen,2007-12-23,22:44:20,300034012023330,71.4182,-134.8596,-11.0994,Actual,,Calculated,282.5000,Calculated,1,9
BaySys,Amundsen,2007-12-24,00:44:09,300034012023330,71.4176,-134.9294,7.2024,Actual,,Calculated,264.7400,Calculated,1,10
BaySys,Amundsen,2007-12-24,02:44:35,300034012023330,71.4170,-134.9997,6.3823,Actual,,Calculated,258.4000,Calculated,1,11
BaySys,Amundsen,2007-12-24,04:44:30,300034012023330,71.4168,-135.0692,-1.7781,Actual,,Calculated,269.2200,Calculated,1,10
BaySys,Amundsen,2007-12-24,06:44:09,300034012023330,71.4164,-135.1389,0.2497,Actual,,Calculated,268.5600,Calculated,1,9
BaySys,Amundsen,2007-12-24,08:44:35,300034012023330,71.4154,-135.2091,4.6645,Actual,,Calculated,340.3100,Calculated,1,10
BaySys,Amundsen,2007-12-24,10:44:53,300034012023330,71.4149,-135.2805,2.5932,Actual,,Calculated,263.6600,Calculated,1,12
BaySys,Amundsen,2007-12-24,12:44:32,300034012023330,71.4144,-135.3515,0.0470,Actual,,Calculated,263.3700,Calculated,1,9
BaySys,Amundsen,2007-12-24,14:44:35,300034012023330,71.4134,-135.4253,-2.8495,Actual,,Calculated,258.4800,Calculated,1,11
BaySys,Amundsen,2007-12-24,16:44:40,300034012023330,71.4125,-135.4983,8.8030,Actual,,Calculated,268.3700,Calculated,1,7
BaySys,Amundsen,2007-12-24,18:45:05,300034012023330,71.4115,-135.5700,-7.2862,Actual,,Calculated,278.3000,Calculated,1,10
BaySys,Amundsen,2007-12-24,20:44:22,300034012023330,71.4106,-135.6413,-2.1241,Actual,,Calculated,273.2600,Calculated,1,10
BaySys,Amundsen,2007-12-24,22:44:53,300034012023330,71.4099,-135.7112,-3.3059,Actual,,Calculated,232.8600,Calculated,1,8
BaySys,Amundsen,2007-12-25,00:44:42,300034012023330,71.4089,-135.7833,-5.7052,Actual,,Calculated,266.9000,Calculated,1,9
BaySys,Amundsen,2007-12-25,02:45:05,300034012023330,71.4080,-135.8598,-4.6700,Actual,,Calculated,262.7400,Calculated,1,10
BaySys,Amundsen,2007-12-25,04:44:48,300034012023330,71.4076,-135.9385,6.9939,Actual,,Calculated,269.6100,Calculated,1,10
BaySys,Amundsen,2007-12-25,06:44:32,300034012023330,71.4078,-136.0176,-10.1504,Actual,,Calculated,260.1400,Calculated,1,10
BaySys,Amundsen,2007-12-25,08:44:32,300034012023330,71.4080,-136.0950,10.5978,Actual,,Calculated,261.9600,Calculated,1,9
BaySys,Amundsen,2007-12-25,10:44:32,300034012023330,71.4073,-136.1673,32.2684,Actual,,Calculated,260.4700,Calculated,1,11
BaySys,Amundsen,2007-12-25,12:45:56,300034012023330,71.4053,-136.2358,18.0612,Actual,,Calculated,260.2800,Calculated,1,10
BaySys,Amundsen,2007-12-25,14:46:29,300034012023330,71.4023,-136.3114,-0.2072,Actual,,Calculated,333.1900,Calculated,1,11
BaySys,Amundsen,2007-12-25,16:46:24,300034012023330,71.5965,-135.8619,-41.9870,Actual,,Calculated,329.1800,Calculated,1,5
BaySys,Amundsen,2007-12-25,18:46:21,300034012023330,71.4015,-136.4783,-1.5136,Actual,,Calculated,277.3200,Calculated,1,10
BaySys,Amundsen,2007-12-25,20:46:21,300034012023330,71.4033,-136.5611,30.4942,Actual,,Calculated,259.8400,Calculated,1,7
BaySys,Amundsen,2007-12-25,22:46:59,300034012023330,71.4049,-136.6425,-7.3890,Actual,,Calculated,230.4400,Calculated,1,8
BaySys,Amundsen,2007-12-26,00:47:05,300034012023330,71.4059,-136.7233,1.3804,Actual,,Calculated,271.0200,Calculated,1,11
BaySys,Amundsen,2007-12-26,02:46:39,300034012023330,71.4059,-136.8050,-0.2514,Actual,,Calculated,291.2500,Calculated,1,10
BaySys,Amundsen,2007-12-26,04:46:55,300034012023330,71.4057,-136.8867,17.5124,Actual,,Calculated,257.1600,Calculated,1,10
BaySys,Amundsen,2007-12-26,06:54:54,300034012023330,71.4060,-136.9725,25.6764,Actual,,Calculated,282.1100,Calculated,1,12
BaySys,Amundsen,2007-12-27,09:01:11,300034012023330,71.4313,-137.7836,3.8440,Actual,,Calculated,276.5100,Calculated,1,8
BaySys,Amundsen,2007-12-27,11:09:51,300034012023330,71.4368,-137.8491,0.1850,Actual,,Calculated,276.6700,Calculated,1,11
BaySys,Amundsen,2007-12-27,13:10:04,300034012023330,71.4416,-137.9115,-12.3414,Actual,,Calculated,310.4300,Calculated,1,11
BaySys,Amundsen,2007-12-27,15:09:59,300034012023330,71.4467,-137.9773,14.6059,Actual,,Calculated,289.3200,Calculated,1,7
BaySys,Amundsen,2007-12-27,17:10:23,300034012023330,71.4522,-138.0428,1.2157,Actual,,Calculated,25.4300,Calculated,1,11
BaySys,Amundsen,2007-12-27,19:10:02,300034012023330,71.4571,-138.1035,-0.9675,Actual,,Calculated,302.7300,Calculated,1,8
BaySys,Amundsen,2007-12-27,21:10:03,300034012023330,71.4626,-138.1630,-5.3120,Actual,,Calculated,283.9500,Calculated,1,12
BaySys,Amundsen,2007-12-27,23:10:34,300034012023330,71.4686,-138.2213,2.9366,Actual,,Calculated,286.4600,Calculated,1,13
BaySys,Amundsen,2007-12-28,01:10:18,300034012023330,71.4751,-138.2791,3.3073,Actual,,Calculated,324.6800,Calculated,1,6
BaySys,Amundsen,2007-12-28,03:10:10,300034012023330,71.4813,-138.3396,-3.9533,Actual,,Calculated,284.1900,Calculated,1,9
BaySys,Amundsen,2007-12-28,05:10:09,300034012023330,71.4878,-138.4041,11.7051,Actual,,Calculated,274.3300,Calculated,1,8
BaySys,Amundsen,2007-12-28,07:10:08,300034012023330,71.4955,-138.4713,-11.0917,Actual,,Calculated,289.9000,Calculated,1,10
BaySys,Amundsen,2007-12-28,09:10:09,300034012023330,71.5025,-138.5345,3.5058,Actual,,Calculated,275.4100,Calculated,1,7
BaySys,Amundsen,2007-12-28,11:10:10,300034012023330,71.5077,-138.5910,-1.9393,Actual,,Calculated,278.5200,Calculated,1,11
BaySys,Amundsen,2007-12-28,13:10:35,300034012023330,71.5117,-138.6443,-6.0266,Actual,,Calculated,283.0400,Calculated,1,7
BaySys,Amundsen,2007-12-28,15:10:12,300034012023330,71.5154,-138.7012,-8.5937,Actual,,Calculated,230.1800,Calculated,1,8
BaySys,Amundsen,2007-12-28,17:10:24,300034012023330,71.5199,-138.7670,-5.3359,Actual,,Calculated,280.7600,Calculated,1,10
BaySys,Amundsen,2007-12-28,19:10:20,300034012023330,71.5253,-138.8339,-4.5221,Actual,,Calculated,281.5700,Calculated,1,8
BaySys,Amundsen,2007-12-28,21:10:20,300034012023330,71.5308,-138.8986,-6.7819,Actual,,Calculated,266.7200,Calculated,1,11
BaySys,Amundsen,2007-12-29,13:20:23,300034012023330,71.5566,-139.3830,-9.0015,Actual,,Calculated,270.0000,Calculated,1,10